,CV,HV,HW,LN,NR,RP,UT
,CO,CO,CO,CO,CO,CO,CO
Date,PPM,PPM,PPM,PPM,PPM,PPM,PPM
08-Jan-2023 00:00,0,0.4,0.2,0.4,0.4,0.1,0.4
08-Jan-2023 01:00,0,0.4,0.2,0.4,0.3,0.2,0.5
08-Jan-2023 02:00,0,0.4,0.1,0.4,0.2,0.1,0.5
08-Jan-2023 03:00,0,0.3,0.1,0.3,0.2,0.1,0.4
08-Jan-2023 04:00,0,0.4,0.1,0.4,0.2,0.1,
08-Jan-2023 05:00,0,0.5,0,0.4,0.2,0.1,0.4
08-Jan-2023 06:00,0,0.3,0,0.3,0.2,0.1,0.4
08-Jan-2023 07:00,0,0.3,0.1,0.4,0.2,0.1,0.4
08-Jan-2023 08:00,0,0.3,0.1,0.4,0.2,0.1,0.4
08-Jan-2023 09:00,0,0.4,0.1,0.4,0.2,0.1,0.5
08-Jan-2023 10:00,0,0.4,0.1,0.4,0.2,0.1,0.4
08-Jan-2023 11:00,0,0.4,0.1,0.4,0.2,0.1,0.4
08-Jan-2023 12:00,0,0.4,0.1,0.4,0.2,0.2,0.4
08-Jan-2023 13:00,0,0.3,0.1,0.4,0.2,0.2,0.5
08-Jan-2023 14:00,0,0.3,0.1,0.4,0.2,0.2,0.5
08-Jan-2023 15:00,0,0.4,0.1,0.3,0.3,0.2,0.5
08-Jan-2023 16:00,0,0.5,0.1,0.3,0.2,0.2,0.5
08-Jan-2023 17:00,0,0.4,0.1,0.3,0.3,0.2,0.5
08-Jan-2023 18:00,0,0.5,0.2,0.4,0.3,0.2,0.5
08-Jan-2023 19:00,0,0.4,0.3,0.4,0.3,0.2,0.6
08-Jan-2023 20:00,0,0.4,0.4,0.6,0.6,0.3,0.6
08-Jan-2023 21:00,0,0.5,0.3,0.7,0.5,0.3,0.6
08-Jan-2023 22:00,0,0.5,0.4,0.6,0.5,0.3,0.6
08-Jan-2023 23:00,0,0.5,0.3,0.6,0.6,0.4,0.6
09-Jan-2023 00:00,0.1,0.6,0.3,0.6,0.6,0.4,0.8
09-Jan-2023 01:00,0.1,0.6,0.2,0.5,0.5,0.2,0.5
09-Jan-2023 02:00,0,0.5,0.3,0.5,0.6,0.2,0.7
09-Jan-2023 03:00,0,0.3,0.3,0.5,0.3,0.3,0.7
09-Jan-2023 04:00,0,,0.3,,0.3,0.3,0.6
09-Jan-2023 05:00,0,0.6,,0.5,0.3,0.3,0.5
09-Jan-2023 06:00,0,0.7,0.4,,0.4,0.2,0.5
09-Jan-2023 07:00,0,0.6,0.5,0.7,0.5,0.2,0.5
09-Jan-2023 08:00,0,0.6,0.3,0.8,0.2,0.2,0.6
09-Jan-2023 09:00,0,0.5,0.2,0.5,0.2,0.1,0.5
09-Jan-2023 10:00,0,0.3,0.1,0.3,0.6,0.1,0.5
09-Jan-2023 11:00,0,0.4,0,0.4,0.4,0,0.4
09-Jan-2023 12:00,0,0.3,0,0.5,0.3,0,0.4
09-Jan-2023 13:00,0,0.4,0.1,0.5,0.2,0.1,0.4
09-Jan-2023 14:00,0,0.4,0.1,0.4,0.1,0,0.5
09-Jan-2023 15:00,0,0.3,0.1,0.3,0.1,0.1,0.4
09-Jan-2023 16:00,0,0.3,0.1,0.3,0.1,0.1,0.5
09-Jan-2023 17:00,0,0.4,0.1,0.3,0.1,0.1,0.5
09-Jan-2023 18:00,-0.1,0.4,0.1,0.3,0.1,0.1,0.4
09-Jan-2023 19:00,-0.1,0.3,0,0.3,0.1,0,0.4
09-Jan-2023 20:00,0,0.3,0,0.3,0.1,0,0.4
09-Jan-2023 21:00,0,0.3,0,0.3,0,0,0.4
09-Jan-2023 22:00,0,0.3,0.1,0.3,0,0,0.4
09-Jan-2023 23:00,0,0.3,0,0.3,0,0,0.4
10-Jan-2023 00:00,0,0.3,0,0.3,0,0,0.4
10-Jan-2023 01:00,0,0.3,0,0.3,0,0,0.4
10-Jan-2023 02:00,0,0.3,0,0.3,0,0,0.4
10-Jan-2023 03:00,-0.1,0.3,0,0.3,0,0,0.4
10-Jan-2023 04:00,,0.3,0,0.3,0,,0.4
10-Jan-2023 05:00,0,0.5,0,0.3,0.1,0,0.4
10-Jan-2023 06:00,-0.1,0.6,0,0.3,0.1,0,0.4
10-Jan-2023 07:00,0,0.4,0.1,0.4,0.1,0,0.4
10-Jan-2023 08:00,0,0.4,0.1,0.4,0.2,0,0.4
10-Jan-2023 09:00,0,0.3,0.2,0.4,0.3,0.1,0.5
10-Jan-2023 10:00,0,0.3,0.1,0.4,0.3,0.1,0.5
10-Jan-2023 11:00,,0.3,0.1,,0.1,0.1,0.5
10-Jan-2023 12:00,,0.3,0,0.3,0.2,0.1,0.5
10-Jan-2023 13:00,0,0.3,0,0.3,0.1,0.1,0.5
10-Jan-2023 14:00,0,0.5,0.1,0.3,0.3,0.1,0.5
10-Jan-2023 15:00,0,0.4,0.1,0.3,0.2,0.2,0.5
10-Jan-2023 16:00,0,0.3,0.1,0.4,0.2,0.1,0.5
10-Jan-2023 17:00,0,0.4,0.1,0.4,0.1,0.1,0.5
10-Jan-2023 18:00,0,0.3,0.1,0.4,0.1,0.1,0.5
10-Jan-2023 19:00,0,0.4,0,0.4,0.1,0.1,0.4
10-Jan-2023 20:00,0,0.3,0.1,0.4,0.1,0.1,0.5
10-Jan-2023 21:00,0,0.4,0.1,0.4,0.1,0.1,0.5
10-Jan-2023 22:00,0.1,0.4,0.2,0.4,0.3,0.1,0.5
10-Jan-2023 23:00,0.1,0.4,0.1,0.4,0.3,0.2,0.5
11-Jan-2023 00:00,0,0.4,0.1,0.4,0.2,0.2,0.6
11-Jan-2023 01:00,0,0.5,0.1,0.3,0.3,0.1,0.6
11-Jan-2023 02:00,0,0.4,0.1,0.4,0.1,0.2,0.6
11-Jan-2023 03:00,0,0.4,0.1,0.4,0.2,0.2,0.6
11-Jan-2023 04:00,0,0.3,0.1,0.4,0.2,0.1,0.5
11-Jan-2023 05:00,0,0.3,0.1,0.4,0.3,0.1,0.5
11-Jan-2023 06:00,0,0.3,0.1,0.4,0.3,0.1,0.5
11-Jan-2023 07:00,0,0.4,0.2,0.5,0.4,0.3,0.6
11-Jan-2023 08:00,0.3,0.5,0.5,0.4,0.5,0.4,0.7
11-Jan-2023 09:00,0.3,0.4,0.6,0.5,0.5,0.5,0.9
11-Jan-2023 10:00,0.2,0.5,0.6,0.5,0.4,0.5,0.8
11-Jan-2023 11:00,0.2,0.4,0.5,0.4,0.5,0.4,0.8
11-Jan-2023 12:00,0.1,0.4,0.3,0.4,0.4,0.2,0.7
11-Jan-2023 13:00,0.1,0.4,0.2,0.4,0.4,0.1,0.5
11-Jan-2023 14:00,0.1,0.4,0.1,0.4,0.4,0.1,0.5
11-Jan-2023 15:00,0.1,0.5,0.1,0.3,0.5,0.1,0.5
11-Jan-2023 16:00,0.1,0.4,0.2,0.4,0.5,0.1,0.5
11-Jan-2023 17:00,0.3,0.4,0.3,0.4,0.6,0.2,0.7
11-Jan-2023 18:00,0.5,0.4,0.2,0.5,0.7,0.4,0.6
11-Jan-2023 19:00,0.3,0.3,0.2,0.6,0.8,0.5,0.7
11-Jan-2023 20:00,0.3,0.3,0.3,0.6,0.7,0.4,0.7
11-Jan-2023 21:00,0.3,0.3,0.1,0.5,0.7,0.4,0.7
11-Jan-2023 22:00,0.4,0.3,0.3,0.5,0.8,0.3,0.6
11-Jan-2023 23:00,0.4,0.5,0.2,0.5,0.7,0.3,0.6
12-Jan-2023 00:00,0.1,0.4,0.3,0.4,0.4,0.2,0.6
12-Jan-2023 01:00,0.1,0.3,0.2,0.4,0.3,0.2,0.5
12-Jan-2023 02:00,0,0.3,0.1,0.4,0.2,0.3,0.6
12-Jan-2023 03:00,0,0.3,0.1,0.4,0.2,0.2,0.6
12-Jan-2023 04:00,0.1,0.9,0.1,0.4,0.3,0.2,0.5
12-Jan-2023 05:00,0.2,0.4,0.1,0.4,0.4,0.3,0.7
12-Jan-2023 06:00,0.4,0.5,0.3,0.3,0.6,0.4,0.8
12-Jan-2023 07:00,0.4,0.6,0.7,0.4,0.7,0.5,0.9
12-Jan-2023 08:00,0.2,0.4,0.7,0.6,0.5,0.4,0.7
12-Jan-2023 09:00,0.1,0.5,0.4,0.6,0.3,0.4,0.6
12-Jan-2023 10:00,0.1,0.4,0.3,0.4,0.4,0.3,0.5
12-Jan-2023 11:00,0.1,0.5,0.2,0.4,0.2,0.3,0.5
12-Jan-2023 12:00,0.1,0.4,0.1,0.4,0.2,0.2,0.5
12-Jan-2023 13:00,0.1,0.4,0.1,0.4,0.4,0.2,0.5
12-Jan-2023 14:00,0.1,0.3,0.1,0.4,0.4,0.2,0.5
12-Jan-2023 15:00,0.1,0.3,0.1,0.4,0.2,0.2,0.5
12-Jan-2023 16:00,0.1,0.3,0.2,0.5,0.2,0.2,0.6
12-Jan-2023 17:00,0.2,0.5,0.5,0.5,0.4,0.4,0.8
12-Jan-2023 18:00,0.5,0.5,0.6,0.5,0.6,0.5,1.1
12-Jan-2023 19:00,0.7,0.6,0.5,0.7,0.8,0.6,1.1
12-Jan-2023 20:00,0.7,0.6,0.4,0.6,0.9,0.6,1.1
12-Jan-2023 21:00,0.7,0.5,0.5,0.6,0.9,0.7,1.2
12-Jan-2023 22:00,0.7,0.5,0.7,0.6,0.9,0.6,1.2
12-Jan-2023 23:00,0.5,0.5,0.6,0.5,0.8,0.7,1.2
13-Jan-2023 00:00,0.5,0.5,0.4,0.4,0.9,0.9,1.2
13-Jan-2023 01:00,0.5,0.5,0.4,0.5,0.8,0.9,1.2
13-Jan-2023 02:00,0.3,0.5,0.3,0.5,0.5,0.9,1
13-Jan-2023 03:00,0.3,0.5,0.4,0.5,0.5,1,1
13-Jan-2023 04:00,0.3,0.5,0.3,0.4,0.5,0.8,0.8
13-Jan-2023 05:00,0.2,0.5,0.4,0.5,0.6,0.6,0.9
13-Jan-2023 06:00,0.4,0.6,0.5,0.5,0.8,0.8,1.1
13-Jan-2023 07:00,0.5,0.8,0.9,0.5,1,1,1.3
13-Jan-2023 08:00,0.6,0.9,1.2,0.7,1,0.7,1
13-Jan-2023 09:00,,0.6,1.2,0.6,1,0.5,0.8
13-Jan-2023 10:00,,,,,,,
13-Jan-2023 11:00,,,,,,,
13-Jan-2023 12:00,,,,,,,
13-Jan-2023 13:00,,,,,,,
13-Jan-2023 14:00,,,,,,,
13-Jan-2023 15:00,,,,,,,
13-Jan-2023 16:00,,,,,,,
13-Jan-2023 17:00,,,,,,,
13-Jan-2023 18:00,,,,,,,
13-Jan-2023 19:00,,,,,,,
13-Jan-2023 20:00,,,,,,,
13-Jan-2023 21:00,,,,,,,
13-Jan-2023 22:00,,,,,,,
13-Jan-2023 23:00,,,,,,,
